DW5560 Weather Reports


time (UTC)temp
F
wind
direction
speed
knots
gust
knots
rain 1hr
in
rain 24hr
in
rain mn
in
humidity
%
barometer
mb
20260508022026 66 147 3.5 7.8 0.00 0.00 0.00 36 1017.5
20260508021023 65 130 4.3 7.0 0.00 0.00 0.00 37 1017.8
20260508020016 64 155 3.5 6.1 0.00 0.00 0.00 43 1017.9
20260508015049 64 190 3.5 7.0 0.00 0.00 0.00 44 1017.7
20260508014021 65 168 5.2 7.0 0.00 0.00 0.00 41 1017.6
20260508013015 65 168 7.0 7.8 0.00 0.00 0.00 37 1017.6
20260508012027 66 144 3.5 7.0 0.00 0.00 0.00 39 1017.8
20260508011019 66 138 5.2 7.8 0.00 0.00 0.00 36 1017.7
20260508010032 66 170 7.8 10.4 0.00 0.00 0.00 36 1017.9
20260508005029 66 165 6.1 9.6 0.00 0.00 0.00 38 1017.9
20260508004022 66 179 6.1 7.8 0.00 0.00 0.00 40 1018.0
20260508003034 66 170 5.2 7.8 0.00 0.00 0.00 38 1018.1
20260508002032 65 170 4.3 6.1 0.00 0.00 0.00 39 1018.1
20260508001024 66 158 4.3 8.7 0.00 0.00 0.00 40 1018.1
20260508000018 65 187 3.5 5.2 0.00 0.00 0.00 41 1018.3
20260507235028 66 184 4.3 6.1 0.00 0.00 0.00 41 1018.4
20260507234026 66 180 4.3 6.1 0.00 0.00 0.00 40 1018.8
20260507233039 66 184 3.5 5.2 0.00 0.00 0.00 41 1018.9
20260507232031 65 204 3.5 5.2 0.00 0.00 0.00 42 1018.9
20260507231024 65 173 3.5 7.0 0.00 0.00 0.00 44 1018.9
20260507230021 64 179 4.3 5.2 0.00 0.00 0.00 48 1019.0
20260507225036 64 171 3.5 6.1 0.00 0.00 0.00 47 1019.2
20260507224028 64 188 3.5 6.1 0.00 0.00 0.00 45 1019.4
20260507223026 64 203 3.5 6.1 0.00 0.00 0.00 44 1019.4
20260507222019 65 171 3.5 5.2 0.00 0.00 0.00 43 1019.3
20260507221052 65 167 4.3 6.1 0.00 0.00 0.00 42 1019.3
20260507220024 64 167 4.3 6.1 0.00 0.00 0.00 43 1019.3
20260507215022 64 178 5.2 7.0 0.00 0.00 0.00 45 1019.4
20260507214035 64 191 3.5 4.3 0.00 0.00 0.00 48 1019.5
20260507213029 64 164 3.5 7.8 0.00 0.00 0.00 47 1019.4
20260507212017 64 153 5.2 7.8 0.00 0.00 0.00 46 1019.5
20260507211056 64 164 7.0 8.7 0.00 0.00 0.00 44 1019.4
20260507210028 64 171 7.0 8.7 0.00 0.00 0.00 45 1019.5
20260507205019 63 165 5.2 8.7 0.00 0.00 0.00 48 1019.5
20260507204031 63 177 5.2 7.0 0.00 0.00 0.00 51 1019.6
20260507203048 63 179 4.3 7.0 0.00 0.00 0.00 52 1019.5
20260507202019 63 205 4.3 7.0 0.00 0.00 0.00 53 1019.4
20260507201032 63 176 5.2 7.0 0.00 0.00 0.00 53 1019.4
20260507200023 63 169 4.3 8.7 0.00 0.00 0.00 52 1019.5
20260507195018 63 184 4.3 7.8 0.00 0.00 0.00 51 1019.7
20260507194030 63 156 3.5 7.0 0.00 0.00 0.00 53 1019.6
20260507193021 63 203 5.2 7.8 0.00 0.00 0.00 53 1019.7
20260507192034 63 198 5.2 7.8 0.00 0.00 0.00 54 1019.5
20260507191031 64 185 3.5 7.8 0.00 0.00 0.00 53 1019.7
20260507190024 64 192 5.2 7.0 0.00 0.00 0.00 52 1019.4
20260507185018 64 171 4.3 6.1 0.00 0.00 0.00 50 1019.3
20260507184028 64 175 5.2 7.0 0.00 0.00 0.00 51 1019.2
20260507183023 64 169 6.1 7.0 0.00 0.00 0.00 53 1019.1
20260507182036 65 159 4.3 8.7 0.00 0.00 0.00 47 1019.1
20260507181029 65 154 4.3 7.0 0.00 0.00 0.00 47 1019.2
20260507180023 65 183 2.6 4.3 0.00 0.00 0.00 50 1019.1
20260507175036 66 180 2.6 4.3 0.00 0.00 0.00 47 1019.2
20260507174029 66 176 2.6 6.1 0.00 0.00 0.00 50 1019.2
20260507173043 66 165 3.5 5.2 0.00 0.00 0.00 49 1018.9
20260507172035 66 157 3.5 5.2 0.00 0.00 0.00 56 1018.8
20260507171033 67 351 1.7 2.6 0.00 0.00 0.00 60 1018.9
20260507170026 68 351 0.9 2.6 0.00 0.00 0.00 57 1018.9
20260507165017 68 351 0.9 1.7 0.00 0.00 0.00 56 1018.9
20260507164028 68 351 0.0 1.7 0.00 0.00 0.00 58 1018.9
20260507163024 68 351 0.0 0.9 0.00 0.00 0.00 58 1018.9
20260507162018 68 351 0.0 0.9 0.00 0.00 0.00 58 1018.9
20260507161051 69 351 0.9 1.7 0.00 0.00 0.00 57 1019.1
20260507160023 69 351 1.7 2.6 0.00 0.00 0.00 57 1018.8
20260507155039 69 351 1.7 2.6 0.00 0.00 0.00 54 1018.6
20260507154031 70 351 1.7 3.5 0.00 0.00 0.00 50 1018.4
20260507153023 70 351 1.7 3.5 0.00 0.00 0.00 47 1018.4
20260507152034 71 340 1.7 5.2 0.00 0.00 0.00 45 1018.4
20260507151030 71 331 2.6 4.3 0.00 0.00 0.00 44 1018.5
20260507150023 71 333 1.7 4.3 0.00 0.00 0.00 46 1018.4
20260507145033 70 355 2.6 4.3 0.00 0.00 0.00 43 1018.4
20260507144027 71 338 3.5 7.0 0.00 0.00 0.00 45 1018.7
20260507143024 71 5 4.3 7.0 0.00 0.00 0.00 43 1018.6
20260507142017 72 348 4.3 8.7 0.00 0.00 0.00 40 1018.7
20260507141030 72 332 5.2 9.6 0.00 0.00 0.00 42 1018.8
20260507140022 72 331 6.1 10.4 0.00 0.00 0.00 42 1018.7
20260507135020 72 5 4.3 9.6 0.00 0.00 0.00 43 1018.7
20260507134033 72 348 6.1 9.6 0.00 0.00 0.00 45 1018.6
20260507133026 72 344 8.7 13.0 0.00 0.00 0.00 47 1018.7
20260507132039 74 27 9.6 13.0 0.00 0.00 0.00 46 1018.4
20260507131035 76 319 4.3 9.6 0.00 0.00 0.00 40 1018.6
20260507130027 76 250 2.6 10.4 0.00 0.00 0.00 33 1018.5
20260507125040 76 148 5.2 17.4 0.00 0.00 0.00 30 1018.6
20260507124052 76 123 10.4 17.4 0.00 0.00 0.00 31 1018.7
20260507123026 77 150 7.0 14.8 0.00 0.00 0.00 30 1018.7
20260507122019 76 152 11.3 16.5 0.00 0.00 0.00 30 1018.9
20260507121032 77 148 7.8 15.6 0.00 0.00 0.00 30 1018.9
20260507120025 77 213 6.1 13.0 0.00 0.00 0.00 29 1019.1
20260507115042 77 157 8.7 14.8 0.00 0.00 0.00 30 1019.2
20260507114035 76 81 1.7 8.7 0.00 0.00 0.00 41 1019.1
20260507113027 76 321 3.5 7.8 0.00 0.00 0.00 41 1019.0
20260507112020 75 67 3.5 9.6 0.00 0.00 0.00 44 1019.0
20260507111017 75 348 4.3 8.7 0.00 0.00 0.00 43 1018.9
20260507110028 73 17 6.1 9.6 0.00 0.00 0.00 45 1019.0
20260507105020 74 5 2.6 10.4 0.00 0.00 0.00 46 1019.0
20260507104054 73 360 7.0 10.4 0.00 0.00 0.00 46 1019.0
20260507103030 74 349 4.3 8.7 0.00 0.00 0.00 46 1018.9
20260507102042 73 32 6.1 9.6 0.00 0.00 0.00 46 1018.9
20260507101036 74 351 7.0 9.6 0.00 0.00 0.00 45 1019.0
20260507100030 74 348 5.2 8.7 0.00 0.00 0.00 45 1019.1
20260507095048 74 360 5.2 8.7 0.00 0.00 0.00 44 1019.3
20260507094018 75 5 5.2 7.8 0.00 0.00 0.00 44 1019.2
20260507093030 75 313 4.3 7.8 0.00 0.00 0.00 43 1019.2
20260507092022 74 360 4.3 7.0 0.00 0.00 0.00 43 1019.3
20260507091019 74 29 2.6 7.8 0.00 0.00 0.00 41 1019.4
20260507090031 73 37 4.3 7.0 0.00 0.00 0.00 41 1019.6
20260507085044 74 13 3.5 7.8 0.00 0.00 0.00 39 1019.5
20260507084036 73 323 3.5 8.7 0.00 0.00 0.00 42 1019.4
20260507083048 73 332 5.2 8.7 0.00 0.00 0.00 40 1019.4
20260507082024 73 349 4.3 8.7 0.00 0.00 0.00 40 1019.3
20260507081017 73 13 3.5 8.7 0.00 0.00 0.00 40 1019.2
20260507080029 72 30 3.5 8.7 0.00 0.00 0.00 41 1019.2
20260507075019 72 346 4.3 7.8 0.00 0.00 0.00 40 1019.3
20260507074016 72 44 4.3 8.7 0.00 0.00 0.00 42 1019.2
20260507073031 73 319 1.7 5.2 0.00 0.00 0.00 42 1019.1
20260507072033 72 32 2.6 6.1 0.00 0.00 0.00 43 1019.1
20260507071027 72 55 2.6 4.3 0.00 0.00 0.00 43 1019.0
20260507070023 72 355 0.9 2.6 0.00 0.00 0.00 43 1018.9
20260507065034 71 82 0.0 2.6 0.00 0.00 0.00 43 1018.9
20260507064027 71 55 0.9 2.6 0.00 0.00 0.00 42 1018.9
20260507063038 70 107 1.7 3.5 0.00 0.00 0.00 37 1018.8
20260507062033 70 62 1.7 3.5 0.00 0.00 0.00 44 1018.8
20260507061024 69 41 0.9 1.7 0.00 0.00 0.00 41 1018.7
20260507060018 69 108 0.9 2.6 0.00 0.00 0.00 41 1018.6
20260507055030 68 111 0.0 2.6 0.00 0.00 0.00 42 1018.5
20260507054028 67 111 0.9 2.6 0.00 0.00 0.00 43 1018.4
20260507053021 68 143 0.0 1.7 0.00 0.00 0.00 45 1018.4
20260507052035 67 143 0.0 1.7 0.00 0.00 0.00 41 1018.5
20260507051032 65 143 0.0 1.7 0.00 0.00 0.00 45 1018.4
20260507050023 65 143 0.9 2.6 0.00 0.00 0.00 49 1018.1
20260507045035 64 188 0.9 3.5 0.00 0.00 0.00 48 1018.0
20260507044027 63 211 3.5 4.3 0.00 0.00 0.00 44 1018.0
20260507043022 62 205 2.6 3.5 0.00 0.00 0.00 48 1017.9
20260507042035 62 173 1.7 3.5 0.00 0.00 0.00 49 1018.0
20260507041047 62 182 3.5 4.3 0.00 0.00 0.00 46 1018.0
20260507040019 62 208 1.7 4.3 0.00 0.00 0.00 46 1017.8
20260507035016 62 207 2.6 5.2 0.00 0.00 0.00 45 1017.8
20260507034026 62 213 3.5 5.2 0.00 0.00 0.00 45 1017.9
20260507033019 62 211 3.5 4.3 0.00 0.00 0.00 45 1017.8
20260507032030 62 201 3.5 5.2 0.00 0.00 0.00 46 1017.7
20260507031026 61 212 2.6 6.1 0.00 0.00 0.00 46 1017.6
20260507030019 61 216 3.5 5.2 0.00 0.00 0.00 46 1017.6
20260507025031 61 215 3.5 5.2 0.00 0.00 0.00 47 1017.6
20260507024024 61 203 3.5 5.2 0.00 0.00 0.00 48 1017.6
20260507023021 60 197 3.5 4.3 0.00 0.00 0.00 49 1017.5